BEIDOU-3 G4 (C62)

Last updated on Wed Aug 26 2026 00:04:16 GMT+0000 (Coordinated Universal Time)

1 56564U 23066A 26237.57299030 -.00000284 00000+0 00000+0 0 9991 2 56564 0.4410 350.8657 0005549 189.8579 139.3476 1.00267245 12082
UTC large
Height (km)
Speed (km/s)
/
Latitude / Longitude
Inclination (degrees)
Orbital Period (minutes)
Azimuth
Elevation
Range (km)
Doppler Factor

Next 0 passes for location: London (51.5072 / 0.1276)

No passes found over London.
BEIDOU-3 G4 (C62)